Flag for Mexico Weather past 2 weeks in Fresnillo, Zacatecas, Mexico

Now
55 °F

Clear.


Feels Like: 55 °F
Forecast: 44 / 70 °F
Wind: No wind

Location: Zacatecas Airport

Current Time: Oct 25, 2014 at 10:41:26 PM

Latest Report: Oct 25, 2014 at 9:45 PM


Visibility: 10 mi

Pressure: 30.34 "Hg

Humidity: 51%

Dew point: 37 °F

Location of FresnilloLocation

Historic Weather in Fresnillo — Graph

°F

Fresnillo temperature yesterday

Maximum temperature yesterday: 75 °F (at 1:53 PM)
Minimum temperature yesterday: 48 °F (at 7:47 AM)
Average temperature yesterday: 60 °F

Past Weeks' High & Low Weather Summary

 TemperatureHumidityPressure
High79 °F (Oct 12, 2:46 PM)87% (Oct 13, 6:54 AM)30.45 "Hg (Oct 13, 6:54 AM)
Low34 °F (Oct 18, 5:40 AM)12% (Oct 17, 4:47 PM)30.11 "Hg (Oct 21, 5:45 PM)
Average61 °F53%30.27 "Hg
* Reported Oct 11 12:45 AM — Oct 25 8:50 PM, Fresnillo, Weather by CustomWeather, © 2014

Note: Actual official high and low records may vary slightly from our data, if they occured in-between our weather recording intervals... More about our weather records

Advertising

Fresnillo weather history for previous 24 hours

 ConditionsComfort  
Time TempWeatherWind HumidityBarometerVisibility
8:50 PM
Oct 25
61 °FClear.No wind45%30.33 "Hg10 mi
3:45 PM73 °FSunny.12 mph31%30.35 "Hg10 mi
2:47 PM72 °FSunny.12 mph36%30.37 "Hg10 mi
1:49 PM70 °FSunny.12 mph38%30.39 "Hg10 mi
12:46 PM68 °FPassing clouds.12 mph43%30.43 "Hg10 mi
11:53 AM64 °FPassing clouds.No wind49%30.44 "Hg10 mi
10:49 AM61 °FSunny.No wind55%30.45 "Hg10 mi
9:52 AM54 °FSunny.No wind77%30.44 "Hg10 mi
8:49 AM46 °FClear.No wind87%30.42 "Hg8 mi
7:45 AM43 °FPassing clouds.No wind81%30.40 "Hg8 mi
6:53 AM45 °FClear.No wind76%30.39 "Hg10 mi
5:50 AM45 °FClear.No wind81%30.39 "Hg10 mi
4:51 AM48 °FClear.No wind71%30.39 "Hg10 mi
2:43 AM52 °FClear.No wind62%30.40 "Hg10 mi
1:48 AM50 °FClear.No wind76%30.41 "Hg10 mi
12:48 AM54 °FClear.6 mph67%30.41 "Hg10 mi
11:48 PM
Oct 24
52 °FClear.No wind67%30.39 "Hg10 mi
11:00 PM55 °FClear.No wind55%30.39 "Hg10 mi
Weather by CustomWeather, © 2014

See weather overviewHow to use our weather pages